Location: Arcones
(41.1182°N, 3.7238°W)
Time: 02:00:58
(UTC+00:00)

Cosmos 783 Rocket - Pass Details

Date: 11 December 2025
Orbit: 753 x 776 km, 74.1° (Epoch: 14 January)

Event Time Altitude Azimuth Distance (km) Brightness Sun altitude
Rises 17:43:50 0° 341° (NNW) 3,264 7.7 -10.6°
Reaches altitude 10° 17:46:14 10° 343° (NNW) 2,333 7.0 -11.0°
Maximum altitude 17:51:32 81° 70° (ENE) 790 4.5 -11.9°
Drops below altitude 10° 17:56:49 10° 158° (SSE) 2,312 7.0 -12.9°
Sets 17:59:10 0° 160° (SSE) 3,232 7.7 -13.3°
